User: anonymous   Login
Location: Unspecified
(0.0000°N, 0.0000°E)
Time: 22:34:08
(UTC+00:00)
Language:

YUBELEINY 2 - Orbit

View from above orbital plane
View from above orbital plane
View from above satellite
View from above satellite

Ground track
Ground track

The orbit data is extracted from the following two-line orbital elements,

1 38735U 12041C   18174.87746133 +.00000000 +00000-0 -70360-4 0  9995
2 38735 082.4772 092.4495 0016108 302.9658 056.9873 12.42576475267837
Epoch (UTC): 23 June 2018 21:03:32
Eccentricity: 0.0016108
inclination: 82.4772°
perigee height: 1483 km
apogee height: 1508 km
right ascension of ascending node: 92.4495°
argument of perigee: 302.9658°
revolutions per day: 12.42576475
mean anomaly at epoch: 56.9873°
orbit number at epoch: 26783

The dashed part of the orbit path shows where the satellite is in the earth's shadow,  

DLR